Find Starlink 3182

NORAD ID: 51469 Int'l Des: 2022-010 Owner: SPXS Country: US Constellation: starlink operational
LEOCIRCULAR

Live Position

Loading 3D Globe...

About Starlink 3182

Description loading...

Upcoming Passes

Passes for default location (London). Set your location on the main map for personalized predictions.

Altitude History

Loading altitude history...

Two-Line Element Set

1 51469U 22010P 26105.72449259 .00000041 00000-0 20688-4 0 9999
2 51469 53.2146 112.8633 0001277 74.7271 285.3862 15.08831780232414
Epoch: Apr 15, 2026 • Age: 18 hours

Current Status

Altitude 543.2 km
Velocity 7.60 km/s
Sub-Earth Point 41.98°N, 128.43°W
Launch Date Feb 3, 2022
Age 4.1 years
Type internet

Technical Details

Classification Payload
Mass 297.00 kg
Dry Mass 275.00 kg
Total Mass 297.00 kg
Length 0.20 m
Diameter 2.80 m
Span 9.00 m
Shape Box + pan
Manufacturer SPXS
Bus Type Starlink
Phase Status In Orbit
Owner/State SPXS/US

Most Searched